• In Russia
  • List of Countries
  • For 7 days
  • Water Temperature
  • Satellite Maps
  • Weather Map
  • Weather Widgets
  • user-avatar
    Login

    Hourly Weather Tibissa

    Today, 23 January, Wednesday

    Time Temperature Precipitation Wind Pressure Humidity
    00:00 +3°C° 0 mm 1 mps 677 mmHg 79%
    01:00 +2°C° 0 mm 2 mps 677 mmHg 78%
    02:00 +2°C° 0 mm 2 mps 676 mmHg 78%
    03:00 +1°C° 0 mm 2 mps 676 mmHg 77%
    04:00 +1°C° 0 mm 2 mps 675 mmHg 77%
    05:00 +1°C° 0 mm 2 mps 675 mmHg 77%
    06:00 +1°C° 0 mm 2 mps 674 mmHg 78%
    07:00 +1°C° 0 mm 2 mps 674 mmHg 79%
    08:00 +1°C° 0 mm 3 mps 674 mmHg 75%
    09:00 +2°C° 0 mm 3 mps 674 mmHg 71%
    10:00 +3°C° 0 mm 4 mps 675 mmHg 68%
    11:00 +3°C° 0 mm 5 mps 674 mmHg 65%
    12:00 +3°C° 0 mm 6 mps 674 mmHg 62%
    13:00 +4°C° 0 mm 7 mps 674 mmHg 60%
    14:00 +4°C° 0 mm 8 mps 673 mmHg 58%
    15:00 +5°C° 0 mm 9 mps 673 mmHg 57%
    16:00 +5°C° 0 mm 10 mps 672 mmHg 55%
    17:00 +3°C° 0.3 mm 9 mps 672 mmHg 60%
    18:00 +2°C° 0.3 mm 8 mps 671 mmHg 65%
    19:00 +3°C° 0.3 mm 7 mps 670 mmHg 69%
    20:00 +2°C° 0.2 mm 8 mps 670 mmHg 73%
    21:00 +2°C° 0.2 mm 9 mps 670 mmHg 77%
    22:00 +2°C° 0.2 mm 10 mps 669 mmHg 81%
    23:00 +2°C° 0 mm 10 mps 669 mmHg 80%

    Tomorrow, 24 January, Thursday

    Time Temperature Precipitation Wind Pressure Humidity
    00:00 +2°C° 0 mm 11 mps 668 mmHg 79%
    01:00 +2°C° 0 mm 11 mps 668 mmHg 78%
    02:00 +1°C° 0.5 mm 11 mps 668 mmHg 81%
    03:00 -1°C° 0.5 mm 11 mps 668 mmHg 84%
    04:00 -2°C° 0.5 mm 12 mps 668 mmHg 87%
    05:00 -2°C° 1 mm 12 mps 668 mmHg 87%
    06:00 -3°C° 1 mm 12 mps 668 mmHg 87%
    07:00 -3°C° 1 mm 12 mps 667 mmHg 87%
    08:00 -4°C° 0.1 mm 13 mps 668 mmHg 83%
    09:00 -4°C° 0.1 mm 14 mps 668 mmHg 78%
    10:00 -4°C° 0.1 mm 16 mps 668 mmHg 74%
    11:00 -3°C° 0 mm 16 mps 668 mmHg 72%
    12:00 -3°C° 0 mm 16 mps 668 mmHg 69%
    13:00 -2°C° 0 mm 17 mps 668 mmHg 66%
    14:00 -3°C° 0 mm 17 mps 668 mmHg 68%
    15:00 -3°C° 0 mm 16 mps 668 mmHg 69%
    16:00 -3°C° 0 mm 16 mps 668 mmHg 71%
    17:00 -3°C° 0.1 mm 17 mps 669 mmHg 75%
    18:00 -3°C° 0.1 mm 18 mps 669 mmHg 79%
    19:00 -3°C° 0.1 mm 19 mps 670 mmHg 83%
    20:00 -3°C° 0 mm 18 mps 670 mmHg 83%
    21:00 -3°C° 0 mm 18 mps 671 mmHg 83%
    22:00 -4°C° 0 mm 17 mps 671 mmHg 83%
    23:00 -4°C° 0.1 mm 17 mps 672 mmHg 83%

    Day after tomorrow, 25 January, Friday

    Time Temperature Precipitation Wind Pressure Humidity
    00:00 -4°C° 0.1 mm 16 mps 672 mmHg 84%
    01:00 -4°C° 0.1 mm 15 mps 672 mmHg 84%
    02:00 -4°C° 0.1 mm 14 mps 672 mmHg 84%
    03:00 -4°C° 0.1 mm 14 mps 673 mmHg 85%
    04:00 -4°C° 0.1 mm 14 mps 673 mmHg 85%
    05:00 -4°C° 0.1 mm 13 mps 673 mmHg 85%
    06:00 -5°C° 0.1 mm 12 mps 673 mmHg 86%
    07:00 -4°C° 0.1 mm 11 mps 674 mmHg 86%
    08:00 -4°C° 0 mm 11 mps 674 mmHg 84%
    09:00 -3°C° 0 mm 12 mps 675 mmHg 81%
    10:00 -4°C° 0 mm 13 mps 675 mmHg 78%
    11:00 -2°C° 0.1 mm 13 mps 675 mmHg 77%
    12:00 -2°C° 0.1 mm 14 mps 676 mmHg 75%
    13:00 -2°C° 0.1 mm 14 mps 676 mmHg 73%
    14:00 -1°C° 0.1 mm 14 mps 676 mmHg 72%
    15:00 -1°C° 0.1 mm 14 mps 675 mmHg 71%
    16:00 -1°C° 0.1 mm 13 mps 675 mmHg 70%
    17:00 -2°C° 0.4 mm 11 mps 675 mmHg 74%
    18:00 -2°C° 0.4 mm 10 mps 675 mmHg 79%
    19:00 -2°C° 0.4 mm 8 mps 675 mmHg 83%
    20:00 -2°C° 0.8 mm 7 mps 676 mmHg 86%
    21:00 -2°C° 0.8 mm 7 mps 676 mmHg 89%
    22:00 -2°C° 0.8 mm 7 mps 676 mmHg 91%
    23:00 -2°C° 0.1 mm 7 mps 676 mmHg 92%

    26 January, Saturday

    Time Temperature Precipitation Wind Pressure Humidity
    00:00 -2°C° 0.1 mm 8 mps 676 mmHg 92%
    01:00 -4°C° 0.1 mm 9 mps 676 mmHg 92%
    02:00 -4°C° 0.1 mm 9 mps 676 mmHg 92%
    03:00 -4°C° 0.1 mm 10 mps 676 mmHg 91%
    04:00 -4°C° 0.1 mm 11 mps 676 mmHg 91%
    05:00 -3°C° 0.1 mm 11 mps 676 mmHg 91%
    06:00 -3°C° 0.1 mm 10 mps 677 mmHg 91%
    07:00 -3°C° 0.1 mm 10 mps 677 mmHg 92%
    08:00 -3°C° 0.6 mm 10 mps 678 mmHg 91%
    09:00 -3°C° 0.6 mm 11 mps 678 mmHg 90%
    10:00 -3°C° 0.6 mm 12 mps 679 mmHg 90%
    11:00 -3°C° 0.3 mm 11 mps 679 mmHg 89%
    12:00 -3°C° 0.3 mm 11 mps 679 mmHg 88%
    13:00 -2°C° 0.3 mm 10 mps 679 mmHg 88%
    14:00 -2°C° 0.1 mm 10 mps 679 mmHg 87%
    15:00 -2°C° 0.1 mm 10 mps 680 mmHg 87%
    16:00 -1°C° 0.1 mm 9 mps 680 mmHg 87%
    17:00 -1°C° 0 mm 9 mps 680 mmHg 88%
    18:00 -3°C° 0 mm 9 mps 680 mmHg 89%
    19:00 -3°C° 0 mm 9 mps 681 mmHg 91%
    20:00 -2°C° 0 mm 8 mps 681 mmHg 90%
    21:00 -2°C° 0 mm 8 mps 681 mmHg 90%
    22:00 -2°C° 0 mm 7 mps 681 mmHg 90%
    23:00 -3°C° 0 mm 6 mps 681 mmHg 90%

    27 January, Sunday

    Time Temperature Precipitation Wind Pressure Humidity
    00:00 -2°C° 0 mm 5 mps 681 mmHg 90%
    01:00 -2°C° 0 mm 4 mps 681 mmHg 89%
    02:00 -2°C° 0 mm 4 mps 680 mmHg 87%
    03:00 -2°C° 0 mm 4 mps 680 mmHg 84%
    04:00 -2°C° 0 mm 4 mps 679 mmHg 82%
    05:00 -2°C° 0 mm 4 mps 679 mmHg 79%
    06:00 -2°C° 0 mm 4 mps 679 mmHg 77%
    07:00 -2°C° 0 mm 5 mps 679 mmHg 74%
    08:00 0°C° 0 mm 5 mps 679 mmHg 73%
    09:00 +1°C° 0 mm 5 mps 679 mmHg 72%
    10:00 +2°C° 0 mm 6 mps 679 mmHg 71%
    11:00 +3°C° 0 mm 6 mps 678 mmHg 72%
    12:00 +4°C° 0 mm 7 mps 678 mmHg 73%
    13:00 +5°C° 0 mm 7 mps 678 mmHg 74%
    14:00 +5°C° 0 mm 7 mps 677 mmHg 75%
    15:00 +5°C° 0 mm 7 mps 677 mmHg 75%
    16:00 +5°C° 0 mm 7 mps 676 mmHg 76%
    17:00 +4°C° 0 mm 6 mps 676 mmHg 80%
    18:00 +3°C° 0 mm 5 mps 676 mmHg 84%
    19:00 +3°C° 0 mm 3 mps 676 mmHg 88%
    20:00 +2°C° 0 mm 3 mps 676 mmHg 88%
    21:00 +2°C° 0 mm 3 mps 676 mmHg 88%
    22:00 +3°C° 0 mm 2 mps 676 mmHg 88%
    23:00 +2°C° 0 mm 3 mps 676 mmHg 87%

    28 January, Monday

    Time Temperature Precipitation Wind Pressure Humidity
    00:00 +1°C° 0 mm 3 mps 675 mmHg 86%
    01:00 0°C° 0 mm 4 mps 675 mmHg 84%
    02:00 0°C° 0 mm 4 mps 675 mmHg 83%
    03:00 0°C° 0 mm 4 mps 674 mmHg 81%
    04:00 0°C° 0 mm 3 mps 674 mmHg 80%
    05:00 0°C° 0 mm 3 mps 674 mmHg 80%
    06:00 -1°C° 0 mm 4 mps 674 mmHg 81%
    07:00 -1°C° 0 mm 4 mps 674 mmHg 81%
    08:00 0°C° 0 mm 5 mps 674 mmHg 76%
    09:00 +1°C° 0 mm 6 mps 674 mmHg 72%
    10:00 +2°C° 0 mm 7 mps 675 mmHg 67%
    11:00 +2°C° 0 mm 7 mps 675 mmHg 62%
    12:00 +3°C° 0 mm 7 mps 675 mmHg 57%
    13:00 +4°C° 0 mm 8 mps 674 mmHg 51%
    14:00 +4°C° 0 mm 8 mps 674 mmHg 50%
    15:00 +4°C° 0 mm 7 mps 674 mmHg 49%
    16:00 +4°C° 0 mm 7 mps 674 mmHg 48%
    17:00 +3°C° 0.1 mm 6 mps 674 mmHg 54%
    18:00 +2°C° 0.1 mm 5 mps 674 mmHg 60%
    19:00 0°C° 0.1 mm 5 mps 674 mmHg 66%
    20:00 0°C° 0 mm 4 mps 674 mmHg 72%
    21:00 -1°C° 0 mm 4 mps 675 mmHg 77%
    22:00 -1°C° 0 mm 3 mps 675 mmHg 83%
    23:00 -1°C° 0 mm 3 mps 675 mmHg 85%
    Show more